Iowa City, IA

9:20 AM CST on January 21, 2018 (GMT -0600)
Iowa City Municipal

Weather History for KIOW - April, 2013

Change the Weather History Date:

Thursday, April 25, 2013

  Actual Average Record
Temperature  
Mean Temperature 44 °F 54 °F  
Max Temperature 56 °F 65 °F 89 °F (1986)
Min Temperature 32 °F 43 °F 32 °F (1958)
Degree Days  
Heating Degree Days 21 11  
Month to date heating degree days 492 375  
Since 1 July heating degree days 6232 6142  
Cooling Degree Days 0 0  
Month to date cooling degree days 0 0  
Year to date cooling degree days 0 0  
Moisture  
Dew Point 29 °F    
Average Humidity 57    
Maximum Humidity 85    
Minimum Humidity 29    
Precipitation  
Precipitation 0.00 in 0.12 in 1.34 in (2007)
Month to date precipitation 8.45 2.69  
Year to date precipitation 13.33 7.07  
Sea Level Pressure  
Sea Level Pressure 30.23 in    
Wind  
Wind Speed 10 mph (West)    
Max Wind Speed 22 mph    
Max Gust Speed 28 mph    
Visibility 10 miles    
Events Rain    
T = Trace of Precipitation, MM = Missing Value Source: NWS Daily Summary

Daily Weather History Graph

Daily Weather History Graph

Search for Another Location

Airport or City:

Trip Planner

Search our weather history database for the weather conditions in past years. The results will help you decide how hot, cold, wet, or windy it might be!

Date:

Astronomy

Apr. 25, 2013 Rise Set
Actual Time 6:10 AM CDT 7:58 PM CDT
Civil Twilight 5:41 AM CDT 8:27 PM CDT
Nautical Twilight 5:05 AM CDT 9:04 PM CDT
Astronomical Twilight 4:26 AM CDT 9:42 PM CDT
Moon 8:12 PM CDT (4/25) 5:54 AM CDT (4/25)
Length of Visible Light 14h 46m
Length of Day
13h 47m
Full, 100% of the Moon is Illuminated
Apr 25
Full
Apr 25
Full
May 2
Last Quarter
May 9
New
May 17
First Quarter

Hourly Weather History & Observations

Time (CDT) Temp. Windchill Dew Point Humidity Pressure Visibility Wind Dir Wind Speed Gust Speed Precip Events Conditions
12:05 AM 42.8 °F 35.1 °F 37.4 °F 81% 30.11 in 10.0 mi WSW 16.1 mph 21.9 mph 0.01 in Rain Light Rain
12:30 AM 42.8 °F 38.0 °F 37.4 °F 81% 30.11 in 10.0 mi SW 8.1 mph - 0.01 in Rain Light Rain
12:52 AM 41.0 °F 35.2 °F 37.0 °F 86% 30.12 in 10.0 mi WSW 9.2 mph - 0.01 in   Overcast
1:52 AM 42.1 °F 36.1 °F 37.9 °F 85% 30.12 in 10.0 mi WSW 10.4 mph - N/A   Mostly Cloudy
2:52 AM 41.0 °F 32.2 °F 35.1 °F 79% 30.13 in 10.0 mi West 18.4 mph 25.3 mph N/A   Clear
3:52 AM 37.9 °F 29.6 °F 33.1 °F 83% 30.17 in 10.0 mi WNW 13.8 mph - N/A   Clear
4:52 AM 36.0 °F 28.5 °F 28.0 °F 73% 30.19 in 10.0 mi WNW 10.4 mph - N/A   Clear
5:52 AM 32.0 °F 25.6 °F 28.0 °F 85% 30.22 in 10.0 mi West 6.9 mph - N/A   Clear
6:52 AM 33.1 °F 28.7 °F 28.0 °F 82% 30.22 in 10.0 mi West 4.6 mph - N/A   Clear
7:52 AM 37.0 °F 31.0 °F 28.9 °F 73% 30.25 in 10.0 mi West 8.1 mph - N/A   Clear
8:52 AM 39.9 °F 32.5 °F 28.9 °F 65% 30.28 in 10.0 mi NW 12.7 mph - N/A   Clear
9:52 AM 42.1 °F 35.7 °F 27.0 °F 55% 30.30 in 10.0 mi WNW 11.5 mph 20.7 mph N/A   Clear
10:52 AM 45.0 °F 39.3 °F 26.1 °F 48% 30.31 in 10.0 mi WNW 11.5 mph 20.7 mph N/A   Clear
11:52 AM 46.9 °F - 24.1 °F 41% 30.31 in 10.0 mi WNW 19.6 mph 25.3 mph N/A   Clear
12:52 PM 51.1 °F - 24.1 °F 35% 30.31 in 10.0 mi WNW 18.4 mph 25.3 mph N/A   Clear
1:52 PM 52.0 °F - 23.0 °F 32% 30.30 in 10.0 mi West 15.0 mph 19.6 mph N/A   Clear
2:52 PM 54.0 °F - 23.0 °F 30% 30.30 in 10.0 mi WNW 11.5 mph 21.9 mph N/A   Clear
3:52 PM 55.0 °F - 25.0 °F 31% 30.27 in 10.0 mi WNW 10.4 mph - N/A   Clear
4:52 PM 55.0 °F - 24.1 °F 30% 30.27 in 10.0 mi West 8.1 mph - N/A   Clear
5:52 PM 55.9 °F - 27.0 °F 33% 30.26 in 10.0 mi NW 8.1 mph - N/A   Clear
6:52 PM 55.0 °F - 27.0 °F 34% 30.25 in 10.0 mi SSW 4.6 mph - N/A   Clear
7:52 PM 52.0 °F - 28.9 °F 41% 30.25 in 10.0 mi South 4.6 mph - N/A   Clear
8:52 PM 46.9 °F - 30.9 °F 54% 30.25 in 10.0 mi SE 5.8 mph - N/A   Clear
9:52 PM 46.0 °F 43.9 °F 30.9 °F 56% 30.26 in 10.0 mi SE 4.6 mph - N/A   Clear
10:52 PM 44.1 °F 40.1 °F 30.9 °F 60% 30.26 in 10.0 mi SE 6.9 mph - N/A   Clear
11:52 PM 44.1 °F 42.5 °F 32.0 °F 63% 30.26 in 10.0 mi SE 3.5 mph - N/A   Clear